Ciampino, Italy

3:47 PM CET on February 19, 2017 (GMT +0100)
Ciampino

Weather History for LIRA - October, 2011

Change the Weather History Date:

Wednesday, October 19, 2011

  Actual Average Record
Temperature  
Mean Temperature 62 °F -  
Max Temperature 68 °F 65 °F 81 °F (2014)
Min Temperature 55 °F 47 °F 42 °F (1996)
Degree Days  
Heating Degree Days 4    
Growing Degree Days 12 (Base 50)    
Moisture  
Dew Point 54 °F    
Average Humidity 74    
Maximum Humidity 94    
Minimum Humidity 43    
Precipitation  
Precipitation 0.00 in 0.15 in - ()
Sea Level Pressure  
Sea Level Pressure 30.19 in    
Wind  
Wind Speed 7 mph ()    
Max Wind Speed 21 mph    
Max Gust Speed 26 mph    
Visibility 6.2 miles    
Events Rain    
Averages and records for this station are not official NWS values.
T = Trace of Precipitation, MM = Missing Value Source: Averaged Metar Reports

Daily Weather History Graph

Daily Weather History Graph

Search for Another Location

Airport or City:

Trip Planner

Search our weather history database for the weather conditions in past years. The results will help you decide how hot, cold, wet, or windy it might be!

Date:

Astronomy

Oct. 19, 2011 Rise Set
Actual Time 7:26 AM CEST 6:23 PM CEST
Civil Twilight 6:57 AM CEST 6:51 PM CEST
Nautical Twilight 6:25 AM CEST 7:23 PM CEST
Astronomical Twilight 5:53 AM CEST 7:55 PM CEST
Moon 11:47 PM CEST 1:48 PM CEST
Length of Visible Light 11h 53m
Length of Day
10h 57m
Waning Gibbous, 57% of the Moon is Illuminated
Oct 19
Waning Gibbous
Oct 20
Last Quarter
Oct 26
New
Nov 2
First Quarter
Nov 10
Full

Hourly Weather History & Observations

Time (CEST) Temp. Dew Point Humidity Pressure Visibility Wind Dir Wind Speed Gust Speed Precip Events Conditions
12:15 AM 62.6 °F 55.4 °F 77% 30.24 in 6.2 mi South 3.5 mph - N/A   Partly Cloudy
12:45 AM 60.8 °F 55.4 °F 82% 30.24 in 6.2 mi South 4.6 mph - N/A   Partly Cloudy
1:15 AM 57.2 °F 53.6 °F 88% 30.24 in 6.2 mi South 2.3 mph - N/A   Scattered Clouds
1:45 AM 55.4 °F 53.6 °F 94% 30.24 in 6.2 mi SSE 3.5 mph - N/A   Scattered Clouds
2:15 AM 57.2 °F 53.6 °F 88% 30.24 in 6.2 mi SE 1.2 mph - N/A   Scattered Clouds
2:45 AM 57.2 °F 53.6 °F 88% 30.24 in 6.2 mi East 1.2 mph - N/A   Scattered Clouds
3:15 AM 57.2 °F 53.6 °F 88% 30.24 in 6.2 mi ESE 2.3 mph - N/A   Scattered Clouds
3:45 AM 55.4 °F 51.8 °F 88% 30.24 in 6.2 mi SE 2.3 mph - N/A   Scattered Clouds
4:15 AM 59.0 °F 55.4 °F 88% 30.24 in 6.2 mi South 4.6 mph - N/A   Scattered Clouds
4:45 AM 59.0 °F 55.4 °F 88% 30.24 in 6.2 mi SSE 4.6 mph - N/A Rain Light Rain
5:15 AM 59.0 °F 55.4 °F 88% 30.24 in 6.2 mi SE 3.5 mph - N/A Rain Light Rain
5:45 AM 59.0 °F 57.2 °F 94% 30.24 in 6.2 mi SE 3.5 mph - N/A Rain Light Rain
6:15 AM 59.0 °F 57.2 °F 94% 30.21 in 6.2 mi SSE 5.8 mph - N/A   Light Drizzle
6:45 AM 57.2 °F 55.4 °F 94% 30.21 in 6.2 mi North 2.3 mph - N/A   Light Drizzle
7:15 AM 59.0 °F 55.4 °F 88% 30.21 in 6.2 mi South 6.9 mph - N/A   Scattered Clouds
7:45 AM 60.8 °F 55.4 °F 82% 30.21 in 6.2 mi SSE 2.3 mph - N/A   Scattered Clouds
8:15 AM 60.8 °F 55.4 °F 82% 30.21 in 6.2 mi South 8.1 mph - N/A   Scattered Clouds
8:45 AM 60.8 °F 55.4 °F 82% 30.21 in 6.2 mi South 8.1 mph - N/A   Scattered Clouds
9:15 AM 62.6 °F 55.4 °F 77% 30.21 in 6.2 mi South 9.2 mph - N/A   Scattered Clouds
9:45 AM 62.6 °F 55.4 °F 77% 30.21 in 6.2 mi South 9.2 mph - N/A   Scattered Clouds
10:15 AM 64.4 °F 55.4 °F 73% 30.21 in 6.2 mi South 13.8 mph - N/A   Scattered Clouds
10:45 AM 64.4 °F 55.4 °F 73% 30.21 in 6.2 mi South 9.2 mph - N/A   Scattered Clouds
11:15 AM 66.2 °F 53.6 °F 64% 30.21 in 6.2 mi South 12.7 mph - N/A   Scattered Clouds
11:45 AM 66.2 °F 51.8 °F 60% 30.21 in 6.2 mi SSW 17.3 mph - N/A   Scattered Clouds
12:15 PM 68.0 °F 51.8 °F 56% 30.21 in 6.2 mi South 13.8 mph - N/A   Scattered Clouds
12:45 PM 66.2 °F 53.6 °F 64% 30.21 in 6.2 mi South 19.6 mph - N/A   Partly Cloudy
1:15 PM 66.2 °F 53.6 °F 64% 30.21 in 6.2 mi South 12.7 mph 26.5 mph N/A   Scattered Clouds
1:45 PM 68.0 °F 53.6 °F 60% 30.21 in 6.2 mi SSW 18.4 mph - N/A   Scattered Clouds
2:15 PM 68.0 °F 51.8 °F 56% 30.21 in 6.2 mi South 15.0 mph - N/A   Scattered Clouds
2:45 PM 68.0 °F 50.0 °F 52% 30.18 in 6.2 mi South 20.7 mph - N/A   Mostly Cloudy
3:15 PM 68.0 °F 44.6 °F 43% 30.18 in 6.2 mi South 17.3 mph - N/A   Scattered Clouds
3:45 PM 68.0 °F 44.6 °F 43% 30.18 in 6.2 mi South 15.0 mph - N/A   Scattered Clouds
4:15 PM 66.2 °F 48.2 °F 52% 30.18 in 6.2 mi South 15.0 mph - N/A   Scattered Clouds
4:45 PM 66.2 °F 48.2 °F 52% 30.18 in 6.2 mi South 13.8 mph - N/A   Scattered Clouds
5:15 PM 66.2 °F 50.0 °F 56% 30.15 in 6.2 mi South 12.7 mph - N/A   Scattered Clouds
5:45 PM 64.4 °F 51.8 °F 64% 30.15 in 6.2 mi South 12.7 mph - N/A   Scattered Clouds
6:15 PM 64.4 °F 53.6 °F 68% 30.12 in 6.2 mi SSE 11.5 mph - N/A   Scattered Clouds
6:45 PM 64.4 °F 55.4 °F 73% 30.12 in 6.2 mi SSE 12.7 mph - N/A   Scattered Clouds
7:15 PM 64.4 °F 55.4 °F 73% 30.12 in 6.2 mi SSE 12.7 mph - N/A   Scattered Clouds
7:45 PM 64.4 °F 55.4 °F 73% 30.12 in 6.2 mi SE 13.8 mph - N/A   Mostly Cloudy
8:15 PM 64.4 °F 55.4 °F 73% 30.12 in 6.2 mi SE 12.7 mph - N/A   Mostly Cloudy
8:45 PM 64.4 °F 55.4 °F 73% 30.09 in 6.2 mi SE 9.2 mph - N/A   Scattered Clouds
9:15 PM 64.4 °F 55.4 °F 73% 30.09 in 6.2 mi SSE 17.3 mph - N/A   Mostly Cloudy
9:45 PM 64.4 °F 55.4 °F 73% 30.09 in 6.2 mi SSE 17.3 mph - N/A   Scattered Clouds
10:15 PM 64.4 °F 57.2 °F 77% 30.09 in 6.2 mi SSE 17.3 mph - N/A   Scattered Clouds
10:45 PM 64.4 °F 59.0 °F 83% 30.09 in 6.2 mi SSE 16.1 mph - N/A   Scattered Clouds
11:15 PM 64.4 °F 59.0 °F 83% 30.09 in 6.2 mi SSE 18.4 mph - N/A Rain Light Rain
11:45 PM 64.4 °F 60.8 °F 88% 30.09 in 6.2 mi South 18.4 mph - N/A   Scattered Clouds